Charlottenburger TSV 1858

Begegnungen & Ergebnisse

Dies ist ein Beispiel Kalender. Als neuer SportsPress-Nutzer, sollten Sie zu Ihrem Dashboard gehen um diese Kalender zu löschen und neue Kalender für Ihre Inhalte zu erstellen. Haben Sie Spaß!

DateEventResultsArticle
2020-08-31 19:00:5031. August 2020 VfB Hermsdorf 2 vs 2. Herren 19:00:5019:00Recap
2020-08-31 19:30:1331. August 2020 3. Herren vs Charlottenburger TTC 4 19:30:1319:30Recap
2020-09-01 19:30:111. September 2020 1. Herren vs SG Rotation Prenzlauer Berg 1 19:30:1119:30Recap
2020-09-04 19:30:084. September 2020 TSV Tempelhof-Mariendorf 5 vs 5. Herren 19:30:0819:30Recap
2020-09-06 14:00:336. September 2020 DJK Blau-Weiß 2 vs 4. Herren 14:00:3314:00Recap
2020-09-10 19:00:2310. September 2020 SV Berliner Brauereien 2 vs 1. Herren 19:00:2319:00Recap
2020-09-10 19:30:4110. September 2020 SG Rotation Prenzlauer Berg 6 vs 3. Herren 19:30:4119:30Recap
2020-09-11 19:30:4911. September 2020 4. Herren vs TSV Staaken 4 19:30:4919:30Recap
2020-09-13 11:00:5113. September 2020 5. Herren vs TuS Lichterfelde 8 11:00:5111:00Recap
2020-09-13 14:00:1013. September 2020 2. Herren vs TTC Borussia Spandau 2 14:00:1014:00Recap
2020-09-14 19:30:2114. September 2020 3. Herren vs TSV Staaken 3 19:30:2119:30Recap
2020-09-15 19:30:4015. September 2020 1. Herren vs KSF Anadolu-Umut 1 19:30:4019:30Recap
2020-09-16 19:00:0216. September 2020 ASV Berlin 7 vs 4. Herren 19:00:0219:00Recap
2020-09-18 19:30:2618. September 2020 Köpenicker SV-Ajax 3 vs 2. Herren 19:30:2619:30Recap
2020-09-20 11:00:5320. September 2020 Deutsch-Chinesischer TT 3 vs 5. Herren 11:00:5311:00Recap
2020-09-25 19:00:2825. September 2020 TTC Heiligensee 3 vs 3. Herren 19:00:2819:00Preview
2020-09-25 19:30:4525. September 2020 TSC Berlin 1 vs 1. Herren 19:30:4519:30Preview
2020-09-26 15:30:0026. September 2020 1. A-Schüler vs Füchse Berlin 1 15:30:0015:30Preview
2020-09-26 15:30:0126. September 2020 Steglitzer TTK 1 vs 1. B-Schüler 15:30:0115:30Preview
2020-09-27 14:00:5727. September 2020 2. Herren vs CfL Berlin 2 14:00:5714:00Preview
2020-09-28 19:30:0928. September 2020 4. Herren vs Füchse Berlin 11 19:30:0919:30Preview
2020-10-05 19:30:325. Oktober 2020 3. Herren vs TTC Lok Pankow 5 19:30:3219:30Preview
2020-10-06 19:30:376. Oktober 2020 1. Herren vs TTC Neukölln 2 19:30:3719:30Preview
2020-10-11 10:00:3511. Oktober 2020 5. Herren vs Spandauer TTC 5 10:00:3510:00Preview
2020-10-11 14:00:2411. Oktober 2020 2. Herren vs Spandauer TTC 1 14:00:2414:00Preview
2020-10-11 18:00:0711. Oktober 2020 SC Siemensstadt 7 vs 4. Herren 18:00:0718:00Preview
2020-10-26 19:00:2326. Oktober 2020 SSV Rotation 2 vs 3. Herren 19:00:2319:00Preview
2020-10-26 19:00:5126. Oktober 2020 Steglitzer TTK 2 vs 1. Herren 19:00:5119:00Preview
2020-10-27 19:30:3327. Oktober 2020 TSV Marienfelde 2 vs 5. Herren 19:30:3319:30Preview
2020-10-30 19:30:1130. Oktober 2020 4. Herren vs Pichelsberger Rudergemeinschaft 1 19:30:1119:30Preview
2020-10-31 14:00:2931. Oktober 2020 ttc berlin eastside 1 vs 1. C-Schüler 14:00:2914:00Preview
2020-10-31 15:30:0931. Oktober 2020 1. B-Schüler vs Hertha BSC 1 15:30:0915:30Preview
2020-10-31 15:30:1631. Oktober 2020 TSV Rudow 1 vs 1. A-Schüler 15:30:1615:30Preview
2020-11-02 19:30:152. November 2020 3. Herren vs TSV Wittenau 4 19:30:1519:30Preview
2020-11-03 19:30:493. November 2020 1. Herren vs SC Eintracht Berlin 1 19:30:4919:30Preview
2020-11-05 19:30:455. November 2020 KSF Anadolu-Umut 2 vs 2. Herren 19:30:4519:30Preview
2020-11-06 19:30:066. November 2020 4. Herren vs Charlottenburger TTC 6 19:30:0619:30Preview
2020-11-07 15:30:087. November 2020 1. A-Schüler vs Lichtenrader SC 1 15:30:0815:30Preview
2020-11-07 15:30:157. November 2020 ttc berlin eastside 1 vs 1. B-Schüler 15:30:1515:30Preview
2020-11-08 10:00:078. November 2020 5. Herren vs SF Kladow 3 10:00:0710:00Preview
2020-11-08 14:00:498. November 2020 2. Herren vs BTTC Meteor 2 14:00:4914:00Preview
2020-11-14 15:30:4614. November 2020 1. B-Schüler vs SG Rotation Prenzlauer Berg 1 15:30:4615:30Preview
2020-11-16 19:15:1316. November 2020 SV Berliner Bären 1 vs 3. Herren 19:15:1319:15Preview
2020-11-19 19:00:0519. November 2020 Hertha BSC 5 vs 1. Herren 19:00:0519:00Preview
2020-11-19 19:00:4719. November 2020 SV Berliner Brauereien 6 vs 2. Herren 19:00:4719:00Preview
2020-11-20 19:15:5520. November 2020 Lübarser TTC 3 vs 4. Herren 19:15:5519:15Preview
2020-11-21 15:30:3821. November 2020 Olympischer SC 1 vs 1. B-Schüler 15:30:3815:30Preview
2020-11-21 15:30:4721. November 2020 ASV Berlin 1 vs 1. A-Schüler 15:30:4715:30Preview
2020-11-22 11:00:1022. November 2020 Düppel Dentalspace 9 vs 5. Herren 11:00:1011:00Preview
2020-11-26 19:30:1026. November 2020 Füchse Berlin 8 vs 3. Herren 19:30:1019:30Preview
2020-11-27 19:30:5927. November 2020 4. Herren vs SC Charlottenburg 7 19:30:5919:30Preview
2020-11-29 11:00:5429. November 2020 BTTC Meteor 1 vs 1. Herren 11:00:5411:00Preview
2020-11-29 14:00:1129. November 2020 2. Herren vs TTC Heiligensee 2 14:00:1114:00Preview